| time (UTC) | temp C | wind direction | speed KPH | gust KPH | rain 1hr cm | rain 24hr cm | rain mn cm | humidity % | barometer mb |
| 20260902064317 | 24 | 277 | 0.0 | 0.0 | 0.00 | 0.00 | 0.00 | 97 | 1013.2 |
| 20260902063812 | 24 | 284 | 0.0 | 0.0 | 0.00 | 0.00 | 0.00 | 96 | 1013.0 |
| 20260902063307 | 24 | 293 | 0.0 | 0.0 | 0.00 | 0.00 | 0.00 | 96 | 1013.1 |
| 20260902062801 | 24 | 287 | 0.0 | 0.0 | 0.00 | 0.00 | 0.00 | 95 | 1013.2 |
| 20260902062256 | 24 | 291 | 0.0 | 0.0 | 0.00 | 0.00 | 0.00 | 95 | 1013.2 |
| 20260902061755 | 25 | 297 | 0.0 | 0.0 | 0.00 | 0.00 | 0.00 | 95 | 1013.2 |
| 20260902061250 | 25 | 309 | 0.0 | 0.0 | 0.00 | 0.00 | 0.00 | 95 | 1013.5 |
| 20260902060748 | 25 | 286 | 0.0 | 0.0 | 0.00 | 0.00 | 0.00 | 95 | 1013.5 |
| 20260902060243 | 24 | 294 | 0.0 | 0.0 | 0.00 | 0.00 | 0.00 | 95 | 1013.3 |
| 20260902055738 | 24 | 275 | 0.0 | 0.0 | 0.00 | 0.00 | 0.00 | 95 | 1013.6 |
| 20260902055234 | 24 | 271 | 0.0 | 0.0 | 0.00 | 0.00 | 0.00 | 95 | 1013.5 |
| 20260902054729 | 24 | 314 | 0.0 | 0.0 | 0.00 | 0.00 | 0.00 | 96 | 1013.6 |
| 20260902054225 | 24 | 299 | 0.0 | 0.0 | 0.00 | 0.00 | 0.00 | 96 | 1013.3 |
| 20260902053720 | 24 | 280 | 0.0 | 0.0 | 0.00 | 0.00 | 0.00 | 96 | 1013.5 |
| 20260902053220 | 24 | 291 | 0.0 | 0.0 | 0.00 | 0.00 | 0.00 | 96 | 1013.7 |
| 20260902052719 | 24 | 274 | 0.0 | 0.0 | 0.00 | 0.00 | 0.00 | 96 | 1013.4 |
| 20260902052215 | 24 | 285 | 0.0 | 0.0 | 0.00 | 0.00 | 0.00 | 95 | 1013.5 |
| 20260902051714 | 24 | 295 | 0.0 | 0.0 | 0.00 | 0.00 | 0.00 | 95 | 1013.6 |
| 20260902051209 | 24 | 314 | 0.0 | 0.0 | 0.00 | 0.00 | 0.00 | 95 | 1013.5 |
| 20260902050703 | 24 | 312 | 0.0 | 0.0 | 0.00 | 0.00 | 0.00 | 95 | 1013.8 |
| 20260902050159 | 24 | 314 | 0.0 | 0.0 | 0.00 | 0.00 | 0.00 | 95 | 1013.3 |
| 20260902045653 | 25 | 295 | 0.0 | 0.0 | 0.00 | 0.00 | 0.00 | 95 | 1013.5 |
| 20260902045149 | 25 | 278 | 0.0 | 0.0 | 0.00 | 0.00 | 0.00 | 95 | 1013.5 |
| 20260902044644 | 25 | 277 | 1.6 | 1.6 | 0.00 | 0.00 | 0.00 | 95 | 1013.8 |
| 20260902044140 | 25 | 293 | 1.6 | 1.6 | 0.00 | 0.00 | 0.00 | 96 | 1013.7 |
| 20260902043634 | 24 | 259 | 3.2 | 3.2 | 0.00 | 0.00 | 0.00 | 96 | 1013.7 |
| 20260902043130 | 24 | 297 | 0.0 | 0.0 | 0.00 | 0.00 | 0.00 | 97 | 1013.7 |
| 20260902042624 | 24 | 278 | 0.0 | 0.0 | 0.00 | 0.00 | 0.00 | 97 | 1013.4 |
| 20260902042119 | 24 | 280 | 0.0 | 0.0 | 0.00 | 0.00 | 0.00 | 98 | 1013.5 |
| 20260902041618 | 24 | 34 | 0.0 | 0.0 | 0.00 | 0.00 | 0.00 | 98 | 1013.5 |
| 20260902041114 | 24 | 284 | 0.0 | 0.0 | 0.00 | 0.00 | 0.00 | 98 | 1013.6 |
| 20260902040613 | 24 | 275 | 0.0 | 0.0 | 0.00 | 0.00 | 0.00 | 98 | 1013.7 |
| 20260902040109 | 24 | 274 | 0.0 | 0.0 | 0.00 | 0.00 | 0.00 | 98 | 1013.4 |
| 20260902035607 | 24 | 256 | 0.0 | 0.0 | 0.00 | 0.00 | 0.00 | 98 | 1013.4 |
| 20260902035103 | 24 | 295 | 0.0 | 0.0 | 0.00 | 0.00 | 0.00 | 98 | 1013.5 |
| 20260902034601 | 25 | 290 | 0.0 | 0.0 | 0.00 | 0.00 | 0.00 | 98 | 1013.5 |
| 20260902034101 | 25 | 283 | 0.0 | 0.0 | 0.00 | 0.00 | 0.00 | 97 | 1013.3 |
| 20260902033600 | 25 | 296 | 0.0 | 0.0 | 0.00 | 0.00 | 0.00 | 97 | 1013.4 |
| 20260902033055 | 25 | 287 | 0.0 | 0.0 | 0.00 | 0.00 | 0.00 | 97 | 1013.4 |
| 20260902032554 | 25 | 298 | 0.0 | 0.0 | 0.00 | 0.00 | 0.00 | 97 | 1013.6 |
| 20260902032049 | 25 | 264 | 0.0 | 0.0 | 0.00 | 0.00 | 0.00 | 97 | 1013.5 |
| 20260902031544 | 25 | 286 | 0.0 | 0.0 | 0.00 | 0.00 | 0.00 | 97 | 1013.5 |
| 20260902031040 | 25 | 294 | 1.6 | 1.6 | 0.00 | 0.00 | 0.00 | 97 | 1013.6 |
| 20260902030534 | 25 | 294 | 0.0 | 0.0 | 0.00 | 0.00 | 0.00 | 97 | 1013.4 |
| 20260902030034 | 25 | 278 | 0.0 | 0.0 | 0.00 | 0.00 | 0.00 | 98 | 1013.5 |
| 20260902025529 | 25 | 279 | 0.0 | 0.0 | 0.00 | 0.00 | 0.00 | 98 | 1013.4 |
| 20260902025024 | 25 | 268 | 0.0 | 1.6 | 0.00 | 0.00 | 0.00 | 99 | 1013.6 |
| 20260902024520 | 25 | 279 | 0.0 | 0.0 | 0.00 | 0.00 | 0.00 | 98 | 1013.2 |
| 20260902024019 | 25 | 280 | 0.0 | 0.0 | 0.00 | 0.00 | 0.00 | 98 | 1013.0 |
| 20260902023515 | 25 | 287 | 0.0 | 0.0 | 0.00 | 0.00 | 0.00 | 97 | 1013.1 |
| 20260902023016 | 25 | 291 | 0.0 | 0.0 | 0.00 | 0.00 | 0.00 | 97 | 1013.2 |
| 20260902022510 | 25 | 289 | 0.0 | 0.0 | 0.00 | 0.00 | 0.00 | 96 | 1013.3 |
| 20260902022006 | 25 | 294 | 0.0 | 0.0 | 0.00 | 0.00 | 0.00 | 96 | 1013.2 |
| 20260902021501 | 25 | 276 | 0.0 | 0.0 | 0.00 | 0.00 | 0.00 | 96 | 1013.1 |
| 20260902020956 | 25 | 278 | 0.0 | 0.0 | 0.00 | 0.00 | 0.00 | 96 | 1013.1 |
| 20260902020452 | 25 | 289 | 0.0 | 0.0 | 0.00 | 0.00 | 0.00 | 95 | 1013.2 |
| 20260902015947 | 25 | 294 | 0.0 | 0.0 | 0.00 | 0.00 | 0.00 | 94 | 1013.1 |
| 20260902015443 | 26 | 297 | 0.0 | 0.0 | 0.00 | 0.00 | 0.00 | 94 | 1013.2 |
| 20260902014938 | 26 | 304 | 0.0 | 0.0 | 0.00 | 0.00 | 0.00 | 93 | 1013.1 |
| 20260902014435 | 26 | 292 | 0.0 | 0.0 | 0.00 | 0.00 | 0.00 | 93 | 1013.1 |
| 20260902013934 | 26 | 276 | 0.0 | 0.0 | 0.00 | 0.00 | 0.00 | 92 | 1013.2 |
| 20260902013430 | 26 | 283 | 0.0 | 0.0 | 0.00 | 0.00 | 0.00 | 92 | 1013.2 |
| 20260902012925 | 26 | 286 | 0.0 | 0.0 | 0.00 | 0.00 | 0.00 | 91 | 1013.1 |
| 20260902012420 | 26 | 274 | 0.0 | 0.0 | 0.00 | 0.00 | 0.00 | 91 | 1013.2 |
| 20260902011916 | 27 | 278 | 1.6 | 1.6 | 0.00 | 0.00 | 0.00 | 90 | 1013.3 |
| 20260902011411 | 27 | 258 | 1.6 | 1.6 | 0.00 | 0.00 | 0.00 | 90 | 1013.1 |
| 20260902010910 | 27 | 280 | 1.6 | 3.2 | 0.00 | 0.00 | 0.00 | 90 | 1013.3 |
| 20260902010405 | 27 | 274 | 0.0 | 0.0 | 0.00 | 0.00 | 0.00 | 90 | 1012.7 |
| 20260902005904 | 27 | 269 | 0.0 | 0.0 | 0.00 | 0.00 | 0.00 | 89 | 1013.0 |
| 20260902005359 | 27 | 279 | 0.0 | 0.0 | 0.00 | 0.00 | 0.00 | 88 | 1012.7 |
| 20260902004855 | 27 | 304 | 1.6 | 1.6 | 0.00 | 0.00 | 0.00 | 88 | 1012.9 |
| 20260902004354 | 27 | 267 | 1.6 | 1.6 | 0.00 | 0.00 | 0.00 | 87 | 1013.0 |
| 20260902003849 | 27 | 294 | 0.0 | 0.0 | 0.00 | 0.00 | 0.00 | 87 | 1012.9 |
| 20260902003344 | 27 | 270 | 1.6 | 3.2 | 0.00 | 0.00 | 0.00 | 87 | 1012.4 |
| 20260902002840 | 28 | 275 | 0.0 | 0.0 | 0.00 | 0.00 | 0.00 | 87 | 1012.7 |
| 20260902002339 | 28 | 277 | 0.0 | 0.0 | 0.00 | 0.00 | 0.00 | 86 | 1012.5 |
| 20260902001834 | 28 | 278 | 1.6 | 3.2 | 0.00 | 0.00 | 0.00 | 86 | 1012.6 |
| 20260902001329 | 28 | 296 | 3.2 | 3.2 | 0.00 | 0.00 | 0.00 | 85 | 1012.3 |
| 20260902000824 | 28 | 241 | 3.2 | 4.8 | 0.00 | 0.00 | 0.00 | 85 | 1012.7 |
| 20260902000322 | 28 | 251 | 1.6 | 4.8 | 0.00 | 0.00 | 0.00 | 84 | 1012.7 |
| 20260901235814 | 28 | 270 | 3.2 | 3.2 | 0.00 | 0.00 | 0.00 | 83 | 1012.7 |
| 20260901235308 | 29 | 281 | 0.0 | 1.6 | 0.00 | 0.00 | 0.00 | 83 | 1012.6 |
| 20260901234808 | 29 | 259 | 0.0 | 0.0 | 0.00 | 0.00 | 0.00 | 82 | 1012.7 |
| 20260901234303 | 29 | 272 | 3.2 | 4.8 | 0.00 | 0.00 | 0.00 | 81 | 1012.6 |
| 20260901233758 | 30 | 309 | 0.0 | 1.6 | 0.00 | 0.00 | 0.00 | 81 | 1012.9 |
| 20260901233253 | 30 | 279 | 3.2 | 4.8 | 0.00 | 0.00 | 0.00 | 80 | 1012.6 |
| 20260901232749 | 30 | 241 | 3.2 | 3.2 | 0.00 | 0.00 | 0.00 | 80 | 1012.9 |
| 20260901232244 | 30 | 259 | 1.6 | 3.2 | 0.00 | 0.00 | 0.00 | 79 | 1012.6 |
| 20260901231740 | 30 | 227 | 3.2 | 4.8 | 0.00 | 0.00 | 0.00 | 78 | 1012.6 |
| 20260901231236 | 30 | 269 | 1.6 | 1.6 | 0.00 | 0.00 | 0.00 | 78 | 1012.9 |
| 20260901230731 | 30 | 221 | 4.8 | 4.8 | 0.00 | 0.00 | 0.00 | 76 | 1013.1 |
| 20260901230225 | 30 | 66 | 1.6 | 4.8 | 0.00 | 0.00 | 0.00 | 76 | 1012.9 |
| 20260901225721 | 31 | 297 | 11.3 | 14.5 | 0.00 | 0.00 | 0.00 | 74 | 1012.9 |
| 20260901225215 | 31 | 305 | 3.2 | 3.2 | 0.00 | 0.00 | 0.00 | 74 | 1013.0 |
| 20260901224711 | 31 | 226 | 4.8 | 8.0 | 0.00 | 0.00 | 0.00 | 74 | 1012.9 |
| 20260901224207 | 31 | 230 | 4.8 | 8.0 | 0.00 | 0.00 | 0.00 | 73 | 1012.9 |
| 20260901223703 | 31 | 283 | 1.6 | 3.2 | 0.00 | 0.00 | 0.00 | 74 | 1012.6 |
| 20260901223158 | 31 | 285 | 4.8 | 4.8 | 0.00 | 0.00 | 0.00 | 73 | 1012.5 |
| 20260901222654 | 31 | 245 | 8.0 | 12.9 | 0.00 | 0.00 | 0.00 | 73 | 1012.4 |
| 20260901222150 | 31 | 249 | 6.4 | 9.7 | 0.00 | 0.00 | 0.00 | 73 | 1012.3 |
| 20260901221646 | 32 | 225 | 4.8 | 8.0 | 0.00 | 0.00 | 0.00 | 72 | 1012.3 |
| 20260901221141 | 31 | 261 | 4.8 | 4.8 | 0.00 | 0.00 | 0.00 | 72 | 1012.5 |
| 20260901220640 | 31 | 267 | 3.2 | 4.8 | 0.00 | 0.00 | 0.00 | 73 | 1012.6 |
| 20260901220139 | 32 | 297 | 3.2 | 9.7 | 0.00 | 0.00 | 0.00 | 72 | 1012.5 |
| 20260901215638 | 31 | 290 | 6.4 | 8.0 | 0.00 | 0.00 | 0.00 | 72 | 1012.2 |
| 20260901215133 | 31 | 254 | 1.6 | 3.2 | 0.00 | 0.00 | 0.00 | 73 | 1012.3 |
| 20260901214631 | 32 | 243 | 4.8 | 4.8 | 0.00 | 0.00 | 0.00 | 71 | 1012.3 |
| 20260901214130 | 32 | 272 | 3.2 | 4.8 | 0.00 | 0.00 | 0.00 | 71 | 1012.3 |
| 20260901213625 | 32 | 249 | 8.0 | 11.3 | 0.00 | 0.00 | 0.00 | 72 | 1012.2 |
| 20260901213120 | 32 | 245 | 4.8 | 4.8 | 0.00 | 0.00 | 0.00 | 71 | 1012.3 |
| 20260901212619 | 32 | 278 | 3.2 | 3.2 | 0.00 | 0.00 | 0.00 | 73 | 1012.4 |
| 20260901212116 | 32 | 13 | 1.6 | 1.6 | 0.00 | 0.00 | 0.00 | 72 | 1012.5 |
| 20260901211610 | 32 | 297 | 4.8 | 4.8 | 0.00 | 0.00 | 0.00 | 72 | 1012.5 |
| 20260901211107 | 31 | 306 | 1.6 | 1.6 | 0.00 | 0.00 | 0.00 | 74 | 1012.5 |
| 20260901210602 | 31 | 287 | 4.8 | 4.8 | 0.00 | 0.00 | 0.00 | 74 | 1012.7 |
| 20260901210058 | 31 | 275 | 3.2 | 3.2 | 0.00 | 0.00 | 0.00 | 73 | 1012.5 |
| 20260901205553 | 31 | 218 | 9.7 | 11.3 | 0.00 | 0.00 | 0.00 | 73 | 1012.6 |
| 20260901205047 | 32 | 253 | 1.6 | 4.8 | 0.00 | 0.00 | 0.00 | 71 | 1012.4 |
| 20260901204544 | 32 | 260 | 3.2 | 3.2 | 0.00 | 0.00 | 0.00 | 71 | 1012.6 |
| 20260901204039 | 32 | 205 | 4.8 | 9.7 | 0.00 | 0.00 | 0.00 | 70 | 1012.7 |
| 20260901203539 | 32 | 258 | 9.7 | 14.5 | 0.00 | 0.00 | 0.00 | 69 | 1012.5 |
| 20260901203034 | 32 | 220 | 6.4 | 8.0 | 0.00 | 0.00 | 0.00 | 71 | 1012.5 |
| 20260901202528 | 32 | 300 | 4.8 | 8.0 | 0.00 | 0.00 | 0.00 | 72 | 1012.5 |
| 20260901202025 | 32 | 250 | 3.2 | 4.8 | 0.00 | 0.00 | 0.00 | 72 | 1012.5 |
| 20260901201520 | 31 | 288 | 8.0 | 11.3 | 0.00 | 0.00 | 0.00 | 72 | 1012.9 |
| 20260901201015 | 31 | 317 | 1.6 | 3.2 | 0.00 | 0.00 | 0.00 | 74 | 1012.6 |
| 20260901200514 | 31 | 237 | 4.8 | 4.8 | 0.00 | 0.00 | 0.00 | 74 | 1013.1 |
| 20260901200009 | 32 | 276 | 8.0 | 9.7 | 0.00 | 0.00 | 0.00 | 73 | 1012.6 |
| 20260901195507 | 31 | 273 | 8.0 | 9.7 | 0.00 | 0.00 | 0.00 | 75 | 1012.6 |
| 20260901195006 | 31 | 230 | 8.0 | 9.7 | 0.00 | 0.00 | 0.00 | 74 | 1013.1 |
| 20260901194501 | 32 | 243 | 1.6 | 3.2 | 0.00 | 0.00 | 0.00 | 73 | 1013.0 |
| 20260901193957 | 32 | 87 | 6.4 | 11.3 | 0.00 | 0.00 | 0.00 | 73 | 1013.0 |
| 20260901193456 | 32 | 295 | 3.2 | 3.2 | 0.00 | 0.00 | 0.00 | 72 | 1012.9 |
| 20260901192956 | 32 | 247 | 4.8 | 4.8 | 0.00 | 0.00 | 0.00 | 73 | 1013.1 |
| 20260901192452 | 31 | 337 | 4.8 | 4.8 | 0.00 | 0.00 | 0.00 | 74 | 1013.3 |
| 20260901191948 | 32 | 218 | 4.8 | 4.8 | 0.00 | 0.00 | 0.00 | 73 | 1013.4 |
| 20260901191443 | 31 | 353 | 3.2 | 3.2 | 0.00 | 0.00 | 0.00 | 75 | 1013.1 |
| 20260901190939 | 31 | 42 | 1.6 | 1.6 | 0.00 | 0.00 | 0.00 | 75 | 1013.3 |
| 20260901190434 | 31 | 248 | 3.2 | 3.2 | 0.00 | 0.00 | 0.00 | 77 | 1013.4 |
| 20260901185932 | 31 | 244 | 1.6 | 1.6 | 0.00 | 0.00 | 0.00 | 76 | 1013.2 |
| 20260901185431 | 31 | 248 | 8.0 | 9.7 | 0.00 | 0.00 | 0.00 | 74 | 1013.3 |
| 20260901184926 | 31 | 225 | 4.8 | 4.8 | 0.00 | 0.00 | 0.00 | 76 | 1013.4 |
| 20260901184421 | 31 | 237 | 8.0 | 11.3 | 0.00 | 0.00 | 0.00 | 73 | 1013.2 |
| 20260901183917 | 32 | 221 | 1.6 | 1.6 | 0.00 | 0.00 | 0.00 | 72 | 1013.4 |
| 20260901183416 | 31 | 264 | 4.8 | 8.0 | 0.00 | 0.00 | 0.00 | 75 | 1013.4 |
| 20260901182912 | 31 | 209 | 3.2 | 4.8 | 0.00 | 0.00 | 0.00 | 75 | 1013.2 |
| 20260901182407 | 31 | 320 | 8.0 | 9.7 | 0.00 | 0.00 | 0.00 | 74 | 1013.1 |
| 20260901181857 | 31 | 222 | 4.8 | 8.0 | 0.00 | 0.00 | 0.00 | 76 | 1013.1 |
| 20260901181357 | 31 | 233 | 1.6 | 3.2 | 0.00 | 0.00 | 0.00 | 75 | 1013.1 |
| 20260901180855 | 31 | 284 | 4.8 | 8.0 | 0.00 | 0.00 | 0.00 | 76 | 1013.2 |
| 20260901180355 | 30 | 262 | 4.8 | 8.0 | 0.00 | 0.00 | 0.00 | 77 | 1013.2 |
| 20260901175853 | 30 | 302 | 3.2 | 3.2 | 0.00 | 0.00 | 0.00 | 78 | 1012.9 |
| 20260901175348 | 31 | 330 | 8.0 | 9.7 | 0.00 | 0.00 | 0.00 | 76 | 1013.3 |
| 20260901174843 | 31 | 278 | 8.0 | 11.3 | 0.00 | 0.00 | 0.00 | 76 | 1013.2 |
| 20260901174339 | 31 | 273 | 4.8 | 8.0 | 0.00 | 0.00 | 0.00 | 76 | 1013.0 |
| 20260901173835 | 31 | 264 | 4.8 | 8.0 | 0.00 | 0.00 | 0.00 | 76 | 1013.2 |
| 20260901173329 | 30 | 307 | 6.4 | 9.7 | 0.00 | 0.00 | 0.00 | 77 | 1013.3 |
| 20260901172826 | 30 | 262 | 1.6 | 3.2 | 0.00 | 0.00 | 0.00 | 77 | 1013.3 |
| 20260901172325 | 30 | 242 | 4.8 | 4.8 | 0.00 | 0.00 | 0.00 | 78 | 1013.4 |
| 20260901171823 | 30 | 301 | 6.4 | 9.7 | 0.00 | 0.00 | 0.00 | 77 | 1013.4 |
| 20260901171323 | 30 | 284 | 8.0 | 9.7 | 0.00 | 0.00 | 0.00 | 79 | 1013.4 |
| 20260901170817 | 30 | 233 | 3.2 | 4.8 | 0.00 | 0.00 | 0.00 | 79 | 1013.4 |
| 20260901170317 | 30 | 286 | 6.4 | 9.7 | 0.00 | 0.00 | 0.00 | 77 | 1013.5 |
| 20260901165815 | 30 | 272 | 1.6 | 3.2 | 0.00 | 0.00 | 0.00 | 78 | 1013.5 |
| 20260901165310 | 31 | 284 | 0.0 | 0.0 | 0.00 | 0.00 | 0.00 | 76 | 1013.7 |
| 20260901164807 | 31 | 288 | 0.0 | 0.0 | 0.00 | 0.00 | 0.00 | 77 | 1013.5 |
| 20260901164302 | 30 | 281 | 3.2 | 4.8 | 0.00 | 0.00 | 0.00 | 78 | 1013.7 |
| 20260901163757 | 30 | 247 | 0.0 | 1.6 | 0.00 | 0.00 | 0.00 | 77 | 1013.5 |
| 20260901163256 | 31 | 311 | 0.0 | 0.0 | 0.00 | 0.00 | 0.00 | 77 | 1013.6 |
| 20260901162752 | 31 | 189 | 1.6 | 4.8 | 0.00 | 0.00 | 0.00 | 75 | 1013.5 |
| 20260901162251 | 31 | 294 | 0.0 | 0.0 | 0.00 | 0.00 | 0.00 | 76 | 1013.6 |
| 20260901161750 | 31 | 298 | 0.0 | 0.0 | 0.00 | 0.00 | 0.00 | 77 | 1013.7 |
| 20260901161244 | 31 | 145 | 1.6 | 1.6 | 0.00 | 0.00 | 0.00 | 76 | 1014.0 |
| 20260901160741 | 30 | 243 | 0.0 | 0.0 | 0.00 | 0.00 | 0.00 | 78 | 1013.9 |
| 20260901160236 | 30 | 0 | 0.0 | 0.0 | 0.00 | 0.00 | 0.00 | 78 | 1014.0 |
| 20260901155735 | 30 | 120 | 0.0 | 0.0 | 0.00 | 0.00 | 0.00 | 78 | 1013.9 |
| 20260901155224 | 30 | 270 | 0.0 | 0.0 | 0.00 | 0.00 | 0.00 | 79 | 1014.3 |
| 20260901154719 | 28 | 285 | 0.0 | 0.0 | 0.00 | 0.00 | 0.00 | 81 | 1014.1 |
| 20260901154214 | 28 | 324 | 0.0 | 3.2 | 0.00 | 0.00 | 0.00 | 82 | 1014.0 |
| 20260901153709 | 29 | 240 | 1.6 | 3.2 | 0.00 | 0.00 | 0.00 | 81 | 1014.0 |
| 20260901153203 | 29 | 211 | 1.6 | 1.6 | 0.00 | 0.00 | 0.00 | 80 | 1014.0 |
| 20260901152658 | 28 | 258 | 0.0 | 1.6 | 0.00 | 0.00 | 0.00 | 82 | 1014.0 |
| 20260901152156 | 28 | 278 | 1.6 | 1.6 | 0.00 | 0.00 | 0.00 | 83 | 1014.2 |
| 20260901151653 | 28 | 254 | 0.0 | 0.0 | 0.00 | 0.00 | 0.00 | 84 | 1014.3 |
| 20260901151152 | 28 | 264 | 6.4 | 8.0 | 0.00 | 0.00 | 0.00 | 83 | 1014.2 |
| 20260901150651 | 28 | 301 | 0.0 | 0.0 | 0.00 | 0.00 | 0.00 | 84 | 1014.4 |
| 20260901150149 | 27 | 292 | 0.0 | 1.6 | 0.00 | 0.00 | 0.00 | 85 | 1014.2 |
| 20260901145648 | 27 | 285 | 0.0 | 0.0 | 0.00 | 0.00 | 0.00 | 85 | 1014.0 |
| 20260901145148 | 27 | 274 | 1.6 | 1.6 | 0.00 | 0.00 | 0.00 | 85 | 1014.1 |
| 20260901144643 | 28 | 302 | 0.0 | 0.0 | 0.00 | 0.00 | 0.00 | 84 | 1014.2 |
| 20260901144138 | 27 | 133 | 0.0 | 0.0 | 0.00 | 0.00 | 0.00 | 86 | 1014.1 |
| 20260901143633 | 27 | 333 | 1.6 | 3.2 | 0.00 | 0.00 | 0.00 | 86 | 1014.1 |
| 20260901143130 | 27 | 275 | 0.0 | 0.0 | 0.00 | 0.00 | 0.00 | 87 | 1014.0 |
| 20260901142626 | 26 | 329 | 1.6 | 3.2 | 0.00 | 0.00 | 0.00 | 88 | 1014.1 |
| 20260901142125 | 27 | 230 | 1.6 | 1.6 | 0.00 | 0.00 | 0.00 | 87 | 1014.1 |
| 20260901141620 | 26 | 173 | 0.0 | 0.0 | 0.00 | 0.00 | 0.00 | 89 | 1014.2 |
| 20260901141114 | 26 | 269 | 3.2 | 4.8 | 0.00 | 0.00 | 0.00 | 90 | 1014.2 |
| 20260901140613 | 26 | 264 | 1.6 | 1.6 | 0.00 | 0.00 | 0.00 | 89 | 1013.9 |
| 20260901140112 | 26 | 241 | 0.0 | 1.6 | 0.00 | 0.00 | 0.00 | 90 | 1014.1 |
| 20260901135612 | 26 | 262 | 8.0 | 11.3 | 0.00 | 0.00 | 0.00 | 90 | 1014.1 |
| 20260901135107 | 26 | 241 | 0.0 | 0.0 | 0.00 | 0.00 | 0.00 | 90 | 1014.0 |
| 20260901134603 | 26 | 294 | 0.0 | 0.0 | 0.00 | 0.00 | 0.00 | 90 | 1014.0 |
| 20260901134058 | 25 | 273 | 0.0 | 0.0 | 0.00 | 0.00 | 0.00 | 91 | 1013.9 |
| 20260901133557 | 25 | 259 | 1.6 | 3.2 | 0.00 | 0.00 | 0.00 | 92 | 1014.2 |
| 20260901133056 | 25 | 277 | 0.0 | 1.6 | 0.00 | 0.00 | 0.00 | 93 | 1014.2 |
| 20260901132550 | 24 | 313 | 3.2 | 3.2 | 0.00 | 0.00 | 0.00 | 94 | 1014.2 |
| 20260901132045 | 24 | 254 | 1.6 | 1.6 | 0.00 | 0.00 | 0.00 | 94 | 1014.2 |
| 20260901131539 | 24 | 276 | 4.8 | 4.8 | 0.00 | 0.00 | 0.00 | 94 | 1014.2 |
| 20260901131034 | 24 | 243 | 6.4 | 8.0 | 0.00 | 0.00 | 0.00 | 94 | 1014.3 |
| 20260901130534 | 24 | 226 | 4.8 | 4.8 | 0.00 | 0.00 | 0.00 | 94 | 1014.6 |
| 20260901130033 | 24 | 279 | 4.8 | 8.0 | 0.00 | 0.00 | 0.00 | 95 | 1014.4 |
| 20260901125531 | 24 | 319 | 1.6 | 1.6 | 0.00 | 0.00 | 0.00 | 96 | 1014.4 |
| 20260901125027 | 23 | 291 | 0.0 | 0.0 | 0.00 | 0.00 | 0.00 | 98 | 1014.3 |
| 20260901124522 | 23 | 298 | 0.0 | 0.0 | 0.00 | 0.00 | 0.00 | 99 | 1014.2 |
| 20260901124021 | 23 | 273 | 3.2 | 3.2 | 0.00 | 0.00 | 0.00 | 99 | 1014.1 |
| 20260901123516 | 22 | 335 | 0.0 | 0.0 | 0.00 | 0.00 | 0.00 | 99 | 1014.1 |
| 20260901123016 | 22 | 296 | 0.0 | 0.0 | 0.00 | 0.00 | 0.00 | 99 | 1014.0 |
| 20260901122514 | 22 | 289 | 0.0 | 0.0 | 0.00 | 0.00 | 0.00 | 99 | 1014.1 |
| 20260901122014 | 22 | 274 | 0.0 | 0.0 | 0.00 | 0.00 | 0.00 | 99 | 1014.0 |
| 20260901121508 | 22 | 264 | 0.0 | 0.0 | 0.00 | 0.00 | 0.00 | 99 | 1013.7 |
| 20260901121003 | 22 | 307 | 0.0 | 0.0 | 0.00 | 0.00 | 0.00 | 99 | 1013.9 |
| 20260901120458 | 21 | 299 | 0.0 | 0.0 | 0.00 | 0.00 | 0.00 | 99 | 1014.0 |
| 20260901115953 | 21 | 304 | 0.0 | 0.0 | 0.00 | 0.00 | 0.00 | 99 | 1013.7 |
| 20260901115448 | 21 | 307 | 0.0 | 0.0 | 0.00 | 0.00 | 0.00 | 99 | 1013.6 |
| 20260901114946 | 21 | 289 | 0.0 | 0.0 | 0.00 | 0.00 | 0.00 | 99 | 1014.0 |
| 20260901114441 | 21 | 306 | 0.0 | 0.0 | 0.00 | 0.00 | 0.00 | 99 | 1013.8 |
| 20260901113938 | 21 | 324 | 0.0 | 0.0 | 0.00 | 0.00 | 0.00 | 99 | 1013.7 |
| 20260901113438 | 21 | 308 | 0.0 | 0.0 | 0.00 | 0.00 | 0.00 | 99 | 1013.6 |
| 20260901112928 | 21 | 284 | 0.0 | 0.0 | 0.00 | 0.00 | 0.00 | 99 | 1013.7 |
| 20260901112423 | 21 | 295 | 0.0 | 0.0 | 0.00 | 0.00 | 0.00 | 99 | 1013.4 |
| 20260901111918 | 21 | 289 | 0.0 | 0.0 | 0.00 | 0.00 | 0.00 | 99 | 1013.3 |
| 20260901111416 | 21 | 295 | 0.0 | 0.0 | 0.00 | 0.00 | 0.00 | 99 | 1013.3 |
| 20260901110915 | 21 | 292 | 0.0 | 0.0 | 0.00 | 0.00 | 0.00 | 99 | 1013.4 |
| 20260901110411 | 21 | 295 | 0.0 | 0.0 | 0.00 | 0.00 | 0.00 | 99 | 1013.6 |
| 20260901105907 | 21 | 243 | 0.0 | 0.0 | 0.00 | 0.00 | 0.00 | 99 | 1013.2 |
| 20260901105403 | 21 | 275 | 0.0 | 0.0 | 0.00 | 0.00 | 0.00 | 99 | 1013.6 |
| 20260901104858 | 21 | 284 | 0.0 | 0.0 | 0.00 | 0.00 | 0.00 | 99 | 1013.3 |
| 20260901104353 | 21 | 287 | 0.0 | 0.0 | 0.00 | 0.00 | 0.00 | 99 | 1013.2 |
| 20260901103849 | 21 | 283 | 0.0 | 0.0 | 0.00 | 0.00 | 0.00 | 99 | 1013.5 |
| 20260901103348 | 21 | 285 | 0.0 | 0.0 | 0.00 | 0.00 | 0.00 | 99 | 1013.4 |
| 20260901102843 | 21 | 286 | 0.0 | 0.0 | 0.00 | 0.00 | 0.00 | 99 | 1013.3 |
| 20260901102337 | 21 | 282 | 0.0 | 0.0 | 0.00 | 0.00 | 0.00 | 99 | 1013.3 |
| 20260901101833 | 21 | 282 | 0.0 | 0.0 | 0.00 | 0.00 | 0.00 | 99 | 1013.4 |
| 20260901101333 | 21 | 284 | 0.0 | 0.0 | 0.00 | 0.00 | 0.00 | 99 | 1013.5 |
| 20260901100827 | 21 | 269 | 0.0 | 0.0 | 0.00 | 0.00 | 0.00 | 99 | 1013.5 |
| 20260901100322 | 21 | 286 | 0.0 | 0.0 | 0.00 | 0.00 | 0.00 | 99 | 1013.4 |
| 20260901095820 | 21 | 276 | 0.0 | 1.6 | 0.00 | 0.00 | 0.00 | 99 | 1013.6 |
| 20260901095318 | 21 | 290 | 0.0 | 0.0 | 0.00 | 0.00 | 0.00 | 99 | 1013.4 |
| 20260901094813 | 21 | 294 | 0.0 | 0.0 | 0.00 | 0.00 | 0.00 | 99 | 1013.4 |
| 20260901094307 | 21 | 288 | 0.0 | 0.0 | 0.00 | 0.00 | 0.00 | 99 | 1013.1 |
| 20260901093802 | 21 | 279 | 0.0 | 0.0 | 0.00 | 0.00 | 0.00 | 99 | 1013.3 |
| 20260901093301 | 21 | 275 | 0.0 | 1.6 | 0.00 | 0.00 | 0.00 | 99 | 1013.3 |
| 20260901092757 | 21 | 269 | 0.0 | 0.0 | 0.00 | 0.00 | 0.00 | 99 | 1013.3 |
| 20260901092253 | 21 | 291 | 0.0 | 0.0 | 0.00 | 0.00 | 0.00 | 99 | 1013.2 |
| 20260901091749 | 21 | 289 | 0.0 | 0.0 | 0.00 | 0.00 | 0.00 | 99 | 1013.2 |
| 20260901091244 | 21 | 285 | 0.0 | 0.0 | 0.00 | 0.00 | 0.00 | 99 | 1013.4 |
| 20260901090744 | 21 | 238 | 0.0 | 0.0 | 0.00 | 0.00 | 0.00 | 99 | 1013.3 |
| 20260901090239 | 21 | 287 | 0.0 | 0.0 | 0.00 | 0.00 | 0.00 | 99 | 1013.3 |
| 20260901085735 | 21 | 270 | 0.0 | 0.0 | 0.00 | 0.00 | 0.00 | 99 | 1013.4 |
| 20260901085230 | 21 | 254 | 0.0 | 0.0 | 0.00 | 0.00 | 0.00 | 99 | 1013.4 |
| 20260901084726 | 21 | 279 | 0.0 | 0.0 | 0.00 | 0.00 | 0.00 | 99 | 1013.4 |
| 20260901084222 | 21 | 292 | 0.0 | 0.0 | 0.00 | 0.00 | 0.00 | 99 | 1013.2 |
| 20260901083717 | 21 | 287 | 0.0 | 0.0 | 0.00 | 0.00 | 0.00 | 99 | 1013.2 |
| 20260901083216 | 21 | 311 | 0.0 | 0.0 | 0.00 | 0.00 | 0.00 | 99 | 1013.1 |
| 20260901082715 | 21 | 284 | 0.0 | 0.0 | 0.00 | 0.00 | 0.00 | 99 | 1013.0 |
| 20260901082211 | 21 | 336 | 0.0 | 0.0 | 0.00 | 0.00 | 0.00 | 99 | 1013.0 |
| 20260901081706 | 21 | 285 | 0.0 | 0.0 | 0.00 | 0.00 | 0.00 | 99 | 1013.2 |
| 20260901081206 | 21 | 293 | 0.0 | 0.0 | 0.00 | 0.00 | 0.00 | 99 | 1013.0 |
| 20260901080701 | 21 | 284 | 0.0 | 0.0 | 0.00 | 0.00 | 0.00 | 99 | 1013.0 |
| 20260901080159 | 21 | 284 | 0.0 | 0.0 | 0.00 | 0.00 | 0.00 | 99 | 1013.1 |
| 20260901075654 | 21 | 297 | 0.0 | 0.0 | 0.00 | 0.00 | 0.00 | 99 | 1013.1 |
| 20260901075149 | 21 | 280 | 0.0 | 0.0 | 0.00 | 0.00 | 0.00 | 99 | 1013.0 |
| 20260901074649 | 21 | 290 | 0.0 | 0.0 | 0.00 | 0.00 | 0.00 | 99 | 1012.7 |
| 20260901074144 | 21 | 279 | 0.0 | 0.0 | 0.00 | 0.00 | 0.00 | 99 | 1013.2 |
| 20260901073640 | 21 | 279 | 0.0 | 0.0 | 0.00 | 0.00 | 0.00 | 99 | 1012.9 |
| 20260901073135 | 21 | 272 | 0.0 | 0.0 | 0.00 | 0.00 | 0.00 | 99 | 1013.0 |
| 20260901072630 | 21 | 283 | 0.0 | 0.0 | 0.00 | 0.00 | 0.00 | 99 | 1013.2 |
| 20260901072125 | 21 | 272 | 0.0 | 0.0 | 0.00 | 0.00 | 0.00 | 99 | 1012.7 |
| 20260901071625 | 21 | 285 | 0.0 | 0.0 | 0.00 | 0.00 | 0.00 | 99 | 1013.1 |
| 20260901071124 | 21 | 287 | 0.0 | 0.0 | 0.00 | 0.00 | 0.00 | 99 | 1013.1 |
| 20260901070619 | 21 | 289 | 0.0 | 0.0 | 0.00 | 0.00 | 0.00 | 99 | 1013.1 |
| 20260901070114 | 21 | 283 | 0.0 | 0.0 | 0.00 | 0.00 | 0.00 | 99 | 1013.1 |
| 20260901065603 | 21 | 291 | 0.0 | 0.0 | 0.00 | 0.00 | 0.00 | 99 | 1013.2 |
| 20260901065102 | 21 | 314 | 0.0 | 0.0 | 0.00 | 0.00 | 0.00 | 99 | 1013.1 |